Retour au catalogue

DELTA 1 DEB

ActifPO
NORAD 21293·DEBRIS·🇺🇸 United States

Lancé Jun 12, 1975 depuis Vandenberg Space Force Base

Loading…

Prochains Passages (prochaines 24 heures)

TLE

FraisSource: Space-Track

Époque: Sep 14, 2026, 06:41 UTC

1 21293U 75052AE  26257.27863969  .00000184  00000-0  69855-3 0  9997
2 21293  99.9214  23.3988 0273036 145.9661 245.9021 12.91791123664688

Suivez DELTA 1 DEB en temps réel avec AllMySat

Download on the App Store